« Back
NWS Peachtree City, Ga » Text Product » GA Regional Weather Roundup


Printer-friendly Version
Current Version              Previous Versions:   1  2  3  4  5  6  7  8  9  

Regional Weather Roundup

368
ASUS42 KFFC 220503
RWRGA
WEATHER ROUNDUP FOR GEORGIA
NATIONAL WEATHER SERVICE PEACHTREE CITY GA
100 AM EDT MON SEP 22 2014

NOTE: "FAIR" INDICATES FEW OR NO CLOUDS BELOW 12,000 FEET WITH NO
SIGNIFICANT WEATHER AND/OR OBSTRUCTIONS TO VISIBILITY.

* = USE WITH CAUTION. THE STATIONS MARKED WITH AN ASTERISK MAY NOT
REPORT WEATHER SUCH AS PRECIPITATION, FOG, OR THUNDER AND ARE NOT
QUALITY CONTROLLED BY NWS.

THE REMARK "TC" DENOTES TEMPERATURE READING IN DEGREES CELSIUS.

GAZ001>058-220600-
NORTH GEORGIA

CITY           SKY/WX    TMP DP  RH WIND       PRES   REMARKS
ATLANTA        MOCLDY    76  62  62 NW7       29.98F
ATHENS         LGT RAIN  73  64  73 W6        29.97R
CHAMBLEE       CLOUDY    73  65  75 SW3       29.98F
PEACHTREE CITY CLEAR     71  64  78 W3        29.99F
ROME           CLOUDY    72  70  93 N8        29.99R
WEST ATLANTA   CLOUDY    75  64  68 SW3       29.98S
GAINESVILLE    MOCLDY    71  67  87 W6        30.00S
CARTERSVILLE   CLOUDY    71  69  93 CALM      29.98F


CITY           SKY/WX    TMP DP  RH WIND       PRES   REMARKS
DALTON*        MOCLDY    68  66  94 N8        30.01R
MARIETTA       MOCLDY    72  69  89 W6        29.99F
$$

GAZ059>098-102>109-220600-
CENTRAL GEORGIA

CITY           SKY/WX    TMP DP  RH WIND       PRES   REMARKS
AUGUSTA-BUSH   PTCLDY    73  62  68 SW8       29.94S
AUGUSTA-DANIEL MOCLDY    75  62  64 SW5       29.95F
COLUMBUS       CLEAR     70  64  81 CALM      29.99S
MACON          CLEAR     69  62  78 SW3       29.98S
ROBINS AFB     CLEAR     72  62  72 SW5       29.98S


CITY           SKY/WX    TMP DP  RH WIND       PRES   REMARKS
LAGRANGE*      CLEAR     70  67  91 CALM      30.00S
SYLVANIA*      CLEAR     75  69  79 CALM      29.99S
$$

GAZ099>101-110>166-220600-
SOUTH GEORGIA

CITY           SKY/WX    TMP DP  RH WIND       PRES   REMARKS
SAVANNAH       CLEAR     73  63  70 SW7       29.98F
VALDOSTA       CLEAR     65  62  90 CALM      30.02F
ALMA           CLEAR     64  61  90 CALM      30.00S
ST SIMONS      CLEAR     74  64  71 SW9       30.00F
FT STEWART     CLEAR     67  62  85 CALM      29.98S
ALBANY         CLEAR     67  63  87 CALM      30.02S
HUNTER AFB     CLEAR     72  66  81 SW6       29.97S
MOODY AFB      CLEAR     66  64  91 S2        30.01F
BRUNSWICK      CLEAR     70  63  78 SW6       30.01S


CITY           SKY/WX    TMP DP  RH WIND       PRES   REMARKS
BAINBRIDGE*    CLEAR     70  68  94 CALM      30.01F
MOULTRIE*      CLEAR     68  63  83 CALM      30.03S
VIDALIA*       CLEAR     70  63  78 SW3       30.00S
DOUGLAS*       CLEAR     70  59  68 SW3       30.01F
$$



USA.gov is the U.S. government's official web portal to all federal, state and local government web resources and services.